DW3823 Weather Reports


time (UTC)temp
C
wind
direction
speed
KPH
gust
KPH
rain 1hr
cm
rain 24hr
cm
rain mn
cm
humidity
%
barometer
mb
20260906120553 21 232 0.0 0.0 0.00 0.25 0.13 98 1012.5
20260906120053 21 232 0.0 0.0 0.00 0.25 0.13 98 1012.5
20260906115554 21 232 0.0 0.0 0.00 0.25 0.13 97 1012.7
20260906115051 21 232 0.0 0.0 0.00 0.25 0.13 97 1012.5
20260906114605 21 232 0.0 0.0 0.00 0.25 0.13 97 1012.6
20260906114049 21 232 0.0 0.0 0.00 0.25 0.13 97 1012.4
20260906113549 21 232 0.0 0.0 0.00 0.25 0.13 97 1012.5
20260906113051 21 232 0.0 0.0 0.00 0.25 0.13 97 1012.1
20260906112547 21 232 0.0 1.6 0.00 0.25 0.13 97 1012.1
20260906112048 21 232 0.0 1.6 0.00 0.25 0.13 97 1012.0
20260906111550 21 232 0.0 1.6 0.00 0.25 0.13 98 1011.9
20260906111046 21 232 0.0 0.0 0.00 0.25 0.13 97 1012.0
20260906110548 21 232 0.0 0.0 0.00 0.25 0.13 97 1011.8
20260906110046 21 232 0.0 0.0 0.00 0.25 0.13 98 1011.9
20260906105546 21 232 0.0 1.6 0.00 0.25 0.13 97 1011.9
20260906105046 21 232 0.0 1.6 0.00 0.25 0.13 98 1012.0
20260906104601 21 232 0.0 0.0 0.00 0.25 0.13 97 1011.8
20260906104045 21 232 0.0 0.0 0.00 0.25 0.13 97 1011.9
20260906103547 21 232 0.0 1.6 0.00 0.25 0.13 97 1011.9
20260906103044 21 232 0.0 1.6 0.00 0.25 0.13 97 1011.9
20260906102544 21 232 0.0 0.0 0.00 0.25 0.13 97 1012.1
20260906102044 21 232 0.0 1.6 0.00 0.25 0.13 97 1012.0
20260906101544 21 232 0.0 1.6 0.00 0.25 0.13 97 1011.8
20260906101043 21 232 0.0 1.6 0.00 0.25 0.13 97 1012.0
20260906100543 21 232 0.0 0.0 0.00 0.25 0.13 97 1011.9
20260906100043 21 232 0.0 3.2 0.00 0.25 0.13 97 1012.0
20260906095543 21 232 0.0 3.2 0.00 0.25 0.13 97 1011.8
20260906095042 21 232 0.0 1.6 0.00 0.25 0.13 97 1011.9
20260906094542 21 232 0.0 1.6 0.00 0.25 0.13 97 1011.9
20260906094041 21 232 0.0 1.6 0.00 0.25 0.13 97 1011.9
20260906093541 21 232 0.0 3.2 0.00 0.25 0.13 97 1011.9
20260906093045 21 232 0.0 3.2 0.00 0.25 0.13 97 1011.7
20260906092541 21 232 0.0 1.6 0.00 0.25 0.13 97 1011.6
20260906092042 21 232 0.0 3.2 0.00 0.25 0.13 97 1011.6
20260906091541 21 232 0.0 3.2 0.00 0.25 0.13 97 1011.7
20260906091040 21 232 0.0 1.6 0.00 0.25 0.13 97 1011.6
20260906090540 21 232 0.0 1.6 0.00 0.25 0.13 97 1011.6
20260906090040 21 232 0.0 1.6 0.00 0.25 0.13 97 1011.6
20260906085539 21 232 0.0 1.6 0.00 0.25 0.13 97 1011.7
20260906085041 21 232 0.0 1.6 0.00 0.25 0.13 97 1011.7
20260906084539 21 232 0.0 1.6 0.00 0.25 0.13 97 1011.7
20260906084038 21 232 0.0 1.6 0.00 0.25 0.13 97 1011.6
20260906083538 22 232 0.0 4.8 0.00 0.25 0.13 97 1011.5
20260906083038 22 232 0.0 4.8 0.00 0.25 0.13 97 1011.7
20260906082537 22 236 0.0 3.2 0.00 0.25 0.13 97 1011.9
20260906082036 22 236 1.6 3.2 0.00 0.25 0.13 97 1011.7
20260906081536 22 236 0.0 3.2 0.00 0.25 0.13 97 1011.8
20260906081035 22 236 0.0 3.2 0.00 0.25 0.13 97 1011.8
20260906080535 22 236 0.0 4.8 0.00 0.25 0.13 97 1011.5
20260906080038 22 190 0.0 3.2 0.00 0.25 0.13 97 1011.5
20260906075533 22 190 0.0 6.4 0.00 0.25 0.13 97 1011.6
20260906075033 22 187 1.6 6.4 0.00 0.25 0.13 97 1011.8
20260906074533 22 220 1.6 11.3 0.00 0.25 0.13 97 1011.8
20260906074032 22 219 1.6 11.3 0.00 0.25 0.13 97 1011.7
20260906073532 22 260 1.6 6.4 0.00 0.25 0.13 97 1011.6
20260906073035 22 252 3.2 6.4 0.00 0.25 0.13 97 1011.5
20260906072532 22 277 0.0 3.2 0.00 0.25 0.13 97 1011.4
20260906072033 22 277 0.0 1.6 0.00 0.25 0.13 97 1011.3
20260906071531 22 277 0.0 1.6 0.00 0.25 0.13 97 1011.3
20260906071032 22 277 0.0 0.0 0.00 0.25 0.13 97 1011.1
20260906070531 22 277 0.0 0.0 0.00 0.25 0.13 97 1011.1
20260906070029 22 277 0.0 0.0 0.00 0.25 0.13 96 1011.1
20260906065530 22 277 0.0 0.0 0.00 0.25 0.13 96 1011.2
20260906065029 22 277 0.0 0.0 0.00 0.25 0.13 96 1011.2
20260906064528 22 277 0.0 0.0 0.00 0.25 0.13 96 1011.3
20260906064028 22 277 0.0 0.0 0.03 0.25 0.13 96 1011.2
20260906063527 22 277 0.0 0.0 0.03 0.25 0.13 96 1011.4
20260906063027 22 277 0.0 0.0 0.03 0.25 0.13 96 1011.5
20260906062525 22 277 0.0 1.6 0.03 0.25 0.13 96 1011.6
20260906062025 22 277 0.0 1.6 0.05 0.25 0.13 95 1011.7
20260906061525 22 277 0.0 3.2 0.05 0.25 0.13 95 1011.8
20260906061023 22 277 0.0 3.2 0.08 0.25 0.13 95 1012.1
20260906060522 22 277 0.0 1.6 0.10 0.25 0.13 94 1012.1
20260906060022 22 277 0.0 3.2 0.13 0.25 0.13 94 1012.3
20260906055522 22 276 0.0 4.8 0.18 0.25 0.13 94 1012.3
20260906055020 22 276 0.0 4.8 0.20 0.25 0.13 94 1012.4
20260906054519 22 317 1.6 3.2 0.20 0.25 0.13 94 1012.4
20260906054018 22 316 0.0 4.8 0.18 0.23 0.10 93 1012.4
20260906053518 23 317 0.0 3.2 0.18 0.23 0.10 93 1012.5
20260906053017 23 307 0.0 3.2 0.18 0.23 0.10 93 1012.6
20260906052520 23 307 0.0 3.2 0.18 0.23 0.10 92 1012.2
20260906052014 23 307 0.0 3.2 0.15 0.20 0.08 92 1012.0
20260906051513 23 307 0.0 4.8 0.15 0.20 0.08 91 1012.2
20260906051015 23 329 1.6 3.2 0.13 0.18 0.05 91 1012.7
20260906050510 23 330 0.0 1.6 0.10 0.15 0.03 90 1012.8
20260906050009 23 360 0.0 1.6 0.08 0.13 0.00 89 1013.2
20260906045509 24 360 0.0 3.2 0.03 0.08 0.08 88 1013.3
20260906045009 24 360 0.0 4.8 0.00 0.05 0.05 87 1013.1
20260906044509 24 360 1.6 4.8 0.00 0.05 0.05 87 1013.7
20260906044008 24 360 0.0 3.2 0.00 0.05 0.05 87 1013.0
20260906043508 24 360 0.0 4.8 0.00 0.05 0.05 86 1012.9
20260906043008 24 304 0.0 4.8 0.00 0.05 0.05 86 1012.9
20260906042507 24 303 1.6 4.8 0.00 0.05 0.05 87 1012.8
20260906042009 23 360 1.6 8.0 0.00 0.05 0.05 89 1013.1
20260906041508 23 360 3.2 8.0 0.00 0.05 0.05 89 1013.3
20260906041011 23 265 0.0 3.2 0.00 0.05 0.05 90 1012.2
20260906040507 23 265 0.0 0.0 0.00 0.05 0.05 89 1011.8
20260906040008 24 360 0.0 1.6 0.00 0.05 0.05 89 1011.9
20260906035506 23 265 0.0 1.6 0.00 0.05 0.05 90 1012.2
20260906035006 23 360 0.0 1.6 0.00 0.05 0.05 90 1012.4
20260906034510 23 265 0.0 1.6 0.00 0.05 0.05 90 1012.7
20260906034007 23 360 0.0 1.6 0.00 0.05 0.05 91 1012.7
20260906033506 23 265 0.0 1.6 0.00 0.05 0.05 91 1012.6
20260906033006 23 265 0.0 1.6 0.00 0.05 0.05 90 1012.5
20260906032506 23 265 0.0 0.0 0.00 0.05 0.05 90 1012.3
20260906032006 23 265 0.0 0.0 0.00 0.05 0.05 89 1012.2
20260906031506 23 265 0.0 1.6 0.00 0.05 0.05 88 1012.1
20260906031005 23 265 0.0 3.2 0.00 0.05 0.05 89 1012.0
20260906030507 23 265 0.0 3.2 0.00 0.05 0.05 90 1011.9
20260906030005 23 360 0.0 1.6 0.00 0.05 0.05 90 1011.9
20260906025505 23 265 0.0 1.6 0.00 0.05 0.05 90 1012.1
20260906025005 23 265 0.0 3.2 0.00 0.05 0.05 89 1012.4
20260906024504 23 360 0.0 3.2 0.00 0.05 0.05 89 1012.2
20260906024006 23 360 0.0 1.6 0.00 0.05 0.05 89 1011.8
20260906023507 23 360 0.0 1.6 0.00 0.05 0.05 89 1011.5
20260906023012 23 360 0.0 1.6 0.00 0.05 0.05 90 1011.4
20260906022504 23 360 0.0 3.2 0.00 0.05 0.05 90 1011.4
20260906022004 23 360 0.0 3.2 0.00 0.05 0.05 90 1011.5
20260906021504 23 360 0.0 0.0 0.00 0.05 0.05 90 1011.3
20260906021003 24 360 0.0 0.0 0.00 0.05 0.05 88 1011.1
20260906020504 24 265 0.0 3.2 0.00 0.05 0.05 87 1011.0
20260906020002 25 263 0.0 3.2 0.00 0.05 0.05 86 1011.0
20260906015502 25 360 0.0 1.6 0.00 0.05 0.05 85 1010.9
20260906015002 25 263 0.0 1.6 0.00 0.05 0.05 85 1011.1
20260906014503 25 263 0.0 1.6 0.00 0.05 0.05 85 1011.1
20260906014002 25 360 0.0 1.6 0.00 0.05 0.05 86 1011.0
20260906013502 25 263 0.0 1.6 0.00 0.05 0.05 83 1011.0
20260906013002 25 360 0.0 1.6 0.00 0.05 0.05 84 1011.0
20260906012502 25 263 0.0 0.0 0.00 0.05 0.05 85 1011.0
20260906012002 25 263 0.0 0.0 0.00 0.05 0.05 85 1010.8
20260906011502 25 264 0.0 3.2 0.00 0.05 0.05 84 1010.6
20260906011000 26 264 0.0 3.2 0.00 0.05 0.05 81 1010.5
20260906010500 25 263 0.0 3.2 0.00 0.05 0.05 83 1010.7
20260906010001 25 360 0.0 3.2 0.00 0.05 0.05 86 1010.8
20260906005600 25 360 0.0 3.2 0.00 0.05 0.05 87 1010.8
20260906005101 25 360 0.0 0.0 0.00 0.05 0.05 88 1011.0
20260906004600 25 360 0.0 0.0 0.00 0.05 0.05 88 1011.1
20260906004101 25 360 0.0 0.0 0.00 0.05 0.05 88 1011.0
20260906003601 25 271 0.0 0.0 0.00 0.05 0.05 88 1011.2
20260906003100 25 271 0.0 0.0 0.00 0.05 0.05 86 1011.2
20260906002559 25 271 0.0 0.0 0.00 0.05 0.05 85 1011.2
20260906002101 26 271 0.0 0.0 0.00 0.05 0.05 84 1011.2
20260906001559 25 271 0.0 0.0 0.00 0.05 0.05 85 1011.0
20260906001059 25 271 0.0 0.0 0.00 0.05 0.05 86 1011.0
20260906000559 26 271 0.0 0.0 0.00 0.05 0.05 85 1011.0
20260906000058 26 271 0.0 0.0 0.00 0.05 0.05 83 1010.9
20260905235601 26 271 0.0 1.6 0.00 0.05 0.05 81 1011.0
20260905235100 26 271 0.0 1.6 0.00 0.05 0.05 81 1010.9
20260905234612 26 271 0.0 0.0 0.00 0.05 0.05 81 1010.7
20260905234100 26 271 0.0 0.0 0.00 0.05 0.05 80 1010.7
20260905233558 26 271 0.0 0.0 0.00 0.05 0.05 79 1010.8
20260905233058 27 271 0.0 0.0 0.00 0.05 0.05 79 1010.8
20260905232557 27 271 0.0 1.6 0.00 0.05 0.05 78 1010.8
20260905232057 28 271 0.0 1.6 0.00 0.05 0.05 75 1010.7
20260905231557 28 271 0.0 1.6 0.00 0.05 0.05 77 1010.8
20260905231058 30 271 0.0 3.2 0.00 0.05 0.05 72 1010.9
20260905230557 30 271 0.0 3.2 0.00 0.05 0.05 63 1010.6
20260905230123 30 271 0.0 3.2 0.00 0.05 0.05 66 1010.7
20260905225559 30 279 0.0 3.2 0.00 0.05 0.05 68 1010.7
20260905225056 30 279 0.0 1.6 0.00 0.05 0.05 70 1010.6
20260905224556 31 279 0.0 3.2 0.00 0.05 0.05 65 1010.6
20260905224056 30 279 0.0 3.2 0.00 0.05 0.05 65 1010.5
20260905223555 31 241 0.0 3.2 0.00 0.05 0.05 64 1010.6
20260905223055 31 241 0.0 3.2 0.00 0.05 0.05 69 1010.8
20260905222554 31 241 0.0 3.2 0.00 0.05 0.05 64 1010.9
20260905222054 31 241 1.6 3.2 0.00 0.05 0.05 63 1010.8
20260905221557 31 241 0.0 3.2 0.00 0.05 0.05 65 1010.9
20260905221057 32 241 0.0 3.2 0.00 0.05 0.05 58 1011.0
20260905220553 32 241 1.6 3.2 0.00 0.05 0.05 59 1010.9
20260905220053 31 241 0.0 6.4 0.00 0.05 0.05 59 1010.9
20260905215554 31 241 0.0 6.4 0.00 0.05 0.05 57 1010.9
20260905215057 31 188 0.0 4.8 0.00 0.05 0.05 62 1011.0
20260905214553 31 188 1.6 9.7 0.00 0.05 0.05 60 1010.9
20260905214053 31 192 3.2 9.7 0.00 0.05 0.05 62 1011.0
20260905213553 30 292 0.0 3.2 0.00 0.05 0.05 68 1010.9
20260905213052 29 301 0.0 1.6 0.00 0.05 0.05 77 1010.8
20260905212552 29 301 0.0 1.6 0.00 0.05 0.05 80 1010.9
20260905212052 28 301 0.0 1.6 0.00 0.05 0.05 84 1011.2
20260905211557 27 301 0.0 1.6 0.00 0.05 0.05 84 1011.3
20260905211051 26 301 0.0 0.0 0.00 0.05 0.05 87 1011.3
20260905210550 26 301 0.0 0.0 0.00 0.05 0.05 87 1011.2
20260905210050 26 301 0.0 0.0 0.00 0.05 0.05 85 1011.4
20260905205550 27 301 0.0 0.0 0.00 0.05 0.05 85 1011.3
20260905205050 26 301 0.0 1.6 0.00 0.05 0.05 83 1011.2
20260905204550 27 301 0.0 1.6 0.00 0.05 0.05 81 1011.1
20260905204049 27 301 0.0 1.6 0.00 0.05 0.05 81 1011.1
20260905203549 27 301 0.0 1.6 0.00 0.05 0.05 81 1011.5
20260905203055 28 328 0.0 4.8 0.00 0.05 0.05 76 1011.5
20260905202547 28 175 1.6 4.8 0.00 0.05 0.05 70 1011.7
20260905202048 29 175 0.0 4.8 0.00 0.05 0.05 68 1011.6
20260905201548 29 188 0.0 4.8 0.00 0.05 0.05 71 1011.7
20260905201046 28 259 1.6 3.2 0.00 0.05 0.05 73 1011.9
20260905200547 27 291 0.0 3.2 0.03 0.05 0.05 78 1011.7
20260905200046 26 309 0.0 3.2 0.05 0.05 0.05 75 1011.7
20260905195546 25 309 0.0 3.2 0.05 0.05 0.05 80 1011.8
20260905195049 24 309 0.0 3.2 0.05 0.05 0.05 87 1012.0
20260905194544 23 360 0.0 1.6 0.05 0.05 0.05 89 1012.0
20260905194045 23 360 0.0 1.6 0.05 0.05 0.05 90 1012.2
20260905193544 22 360 0.0 3.2 0.05 0.05 0.05 89 1011.9
20260905193102 23 360 0.0 3.2 0.05 0.05 0.05 88 1012.1
20260905192543 23 360 0.0 8.0 0.05 0.05 0.05 85 1012.0
20260905192043 23 360 3.2 9.7 0.05 0.05 0.05 83 1012.3
20260905191544 23 360 1.6 9.7 0.05 0.05 0.05 82 1012.4
20260905191042 24 360 3.2 9.7 0.05 0.05 0.05 81 1012.6
20260905190543 25 275 1.6 11.3 0.03 0.03 0.03 80 1012.8
20260905190042 26 263 1.6 9.7 0.00 0.00 0.00 76 1012.9
20260905185541 27 275 3.2 9.7 0.00 0.00 0.00 74 1012.8
20260905185042 28 281 0.0 11.3 0.00 0.00 0.00 73 1012.5
20260905184542 29 267 1.6 11.3 0.00 0.00 0.00 71 1012.6
20260905184041 30 21 1.6 8.0 0.00 0.00 0.00 70 1012.6
20260905183543 31 32 3.2 12.9 0.00 0.00 0.00 68 1012.6
20260905183046 31 310 3.2 12.9 0.00 0.00 0.00 65 1012.3
20260905182541 32 56 1.6 14.5 0.00 0.00 0.00 61 1012.4
20260905182041 33 336 3.2 8.0 0.00 0.00 0.00 58 1012.0
20260905181541 34 336 3.2 9.7 0.00 0.00 0.00 57 1012.3
20260905181039 33 53 3.2 9.7 0.00 0.00 0.00 58 1012.3
20260905180539 33 261 1.6 6.4 0.00 0.00 0.00 59 1012.2
20260905180038 33 233 1.6 9.7 0.00 0.00 0.00 56 1012.4
20260905175538 35 38 4.8 9.7 0.00 0.00 0.00 54 1012.7
20260905175037 35 271 3.2 12.9 0.00 0.00 0.00 54 1012.7
20260905174535 35 265 3.2 11.3 0.00 0.00 0.00 56 1012.7
20260905174034 34 360 1.6 6.4 0.00 0.00 0.00 58 1012.6
20260905173533 34 13 1.6 8.0 0.00 0.00 0.00 57 1012.7
20260905173030 33 65 1.6 8.0 0.00 0.00 0.00 56 1012.8
20260905172530 34 99 3.2 14.5 0.00 0.00 0.00 57 1012.8
20260905172030 33 102 3.2 14.5 0.00 0.00 0.00 58 1012.9
20260905171535 33 250 3.2 8.0 0.00 0.00 0.00 56 1012.8
20260905171027 33 311 1.6 9.7 0.00 0.00 0.00 56 1012.9
20260905170527 33 59 3.2 6.4 0.00 0.00 0.00 58 1012.9
20260905170025 33 37 1.6 8.0 0.00 0.00 0.00 57 1012.9
20260905165524 33 294 3.2 11.3 0.00 0.00 0.00 58 1013.0
20260905165023 33 115 1.6 8.0 0.00 0.00 0.00 61 1013.0
20260905164525 33 288 1.6 8.0 0.00 0.00 0.00 60 1013.2
20260905164022 33 86 1.6 6.4 0.00 0.00 0.00 60 1013.3
20260905163525 33 91 1.6 6.4 0.00 0.00 0.00 61 1013.4
20260905163021 32 323 1.6 6.4 0.00 0.00 0.00 63 1013.5
20260905162522 33 67 3.2 6.4 0.00 0.00 0.00 61 1013.5
20260905162020 33 248 3.2 6.4 0.00 0.00 0.00 62 1013.6
20260905161519 32 48 1.6 4.8 0.00 0.00 0.00 63 1013.6
20260905161018 32 46 1.6 6.4 0.00 0.00 0.00 65 1013.6
20260905160515 32 32 1.6 6.4 0.00 0.00 0.00 64 1013.7
20260905160024 32 57 0.0 6.4 0.00 0.00 0.00 64 1013.6
20260905155513 31 312 1.6 6.4 0.00 0.00 0.00 65 1013.7
20260905155014 31 64 1.6 6.4 0.00 0.00 0.00 67 1013.7
20260905154511 31 70 3.2 6.4 0.00 0.00 0.00 66 1013.6
20260905154011 31 243 3.2 6.4 0.00 0.00 0.00 66 1013.7
20260905153511 31 290 1.6 4.8 0.00 0.00 0.00 66 1013.7
20260905153009 31 115 1.6 4.8 0.00 0.00 0.00 69 1013.8
20260905152508 31 117 3.2 4.8 0.00 0.00 0.00 69 1013.9
20260905152007 30 164 1.6 8.0 0.00 0.00 0.00 69 1014.0
20260905151505 30 279 1.6 6.4 0.00 0.00 0.00 69 1013.9
20260905151003 30 252 1.6 6.4 0.00 0.00 0.00 69 1014.0
20260905150501 30 244 1.6 6.4 0.00 0.00 0.00 71 1014.1
20260905150114 29 236 0.0 6.4 0.00 0.00 0.00 71 1014.0
20260905145600 29 260 1.6 6.4 0.00 0.00 0.00 72 1014.0
20260905145058 29 171 1.6 6.4 0.00 0.00 0.00 73 1013.9
20260905144556 28 223 1.6 6.4 0.00 0.00 0.00 73 1014.0
20260905144059 28 252 0.0 4.8 0.00 0.00 0.00 76 1014.1
20260905143554 27 219 1.6 6.4 0.00 0.00 0.00 76 1014.1
20260905143055 27 250 1.6 6.4 0.00 0.00 0.00 77 1014.0
20260905142553 27 180 1.6 6.4 0.00 0.00 0.00 77 1014.1
20260905142050 27 234 3.2 6.4 0.00 0.00 0.00 78 1014.0
20260905141550 27 190 0.0 4.8 0.00 0.00 0.00 78 1014.0
20260905141048 27 190 1.6 4.8 0.00 0.00 0.00 79 1014.1
20260905140547 26 168 0.0 8.0 0.00 0.00 0.00 80 1014.2
20260905140046 26 168 3.2 8.0 0.00 0.00 0.00 80 1014.2
20260905135544 26 158 3.2 8.0 0.00 0.00 0.00 81 1014.1
20260905135042 26 148 0.0 8.0 0.00 0.00 0.00 85 1014.1
20260905134546 25 148 1.6 6.4 0.00 0.00 0.00 85 1014.1
20260905134040 25 113 0.0 3.2 0.00 0.00 0.00 89 1014.1
20260905133539 25 113 0.0 1.6 0.00 0.00 0.00 88 1014.1
20260905133037 24 113 0.0 0.0 0.00 0.00 0.00 91 1014.1
20260905132537 24 113 0.0 3.2 0.00 0.00 0.00 90 1014.1
20260905132037 24 113 0.0 3.2 0.00 0.00 0.00 89 1014.2
20260905131535 24 108 0.0 1.6 0.00 0.00 0.00 91 1014.3
20260905131033 24 67 0.0 3.2 0.00 0.00 0.00 90 1014.5
20260905130534 24 67 0.0 3.2 0.00 0.00 0.00 89 1014.5
20260905130032 23 67 0.0 3.2 0.00 0.00 0.00 90 1014.4
20260905125530 23 65 0.0 3.2 0.00 0.00 0.00 91 1014.4
20260905125029 23 196 0.0 3.2 0.00 0.00 0.00 91 1014.5
20260905124528 23 196 0.0 6.4 0.00 0.00 0.00 92 1014.7
20260905124026 23 196 0.0 6.4 0.00 0.00 0.00 93 1014.6
20260905123524 23 257 0.0 3.2 0.00 0.00 0.00 96 1014.5
20260905123023 23 323 0.0 0.0 0.00 0.00 0.00 96 1014.4
20260905122524 22 323 0.0 0.0 0.00 0.00 0.00 96 1014.3
20260905122021 22 323 0.0 0.0 0.00 0.00 0.00 96 1014.2
20260905121519 22 323 0.0 0.0 0.00 0.00 0.00 97 1014.2
20260905121018 22 323 0.0 0.0 0.00 0.00 0.00 97 1014.1